Argentia, Canada

12:10 PM NDT on October 23, 2017 (GMT -0230)
Argentia

Weather History for CWAR - November, 2012

Change the Weather History Date:

Sunday, November 4, 2012

  Actual Average Record
Temperature  
Mean Temperature 52 °F -  
Max Temperature 55 °F - - ()
Min Temperature 50 °F - - ()
Degree Days  
Heating Degree Days 12    
Growing Degree Days 2 (Base 50)    
Moisture  
Dew Point 50 °F    
Average Humidity 87    
Maximum Humidity 94    
Minimum Humidity 75    
Precipitation  
Precipitation 0.00 in - - ()
Sea Level Pressure  
Sea Level Pressure 29.47 in    
Wind  
Wind Speed 17 mph ()    
Max Wind Speed 28 mph    
Max Gust Speed 36 mph    
T = Trace of Precipitation, MM = Missing Value Source: Averaged Metar Reports

Daily Weather History Graph

Daily Weather History Graph

Search for Another Location

Airport or City:

Trip Planner

Search our weather history database for the weather conditions in past years. The results will help you decide how hot, cold, wet, or windy it might be!

Date:

Astronomy

Nov. 04, 2012 Rise Set
Actual Time 6:54 AM NST 4:44 PM NST
Civil Twilight 6:22 AM NST 5:16 PM NST
Nautical Twilight 5:45 AM NST 5:52 PM NST
Astronomical Twilight 5:10 AM NST 6:28 PM NST
Moon 9:12 PM NST (11/4) 11:39 AM NST (11/4)
Length of Visible Light 10h 54m
Length of Day
9h 49m
Waning Gibbous, 72% of the Moon is Illuminated
Nov 4
Waning Gibbous
Nov 6
Last Quarter
Nov 13
New
Nov 20
First Quarter
Nov 28
Full

Hourly Weather History & Observations

Time (NST) Temp. Dew Point Humidity Pressure Visibility Wind Dir Wind Speed Gust Speed Precip Events Conditions
12:30 AM 56 °F 54 °F 90% 29.41 in - SSE 17.3 mph - -  
12:30 AM 55.8 °F 53.8 °F 93% 29.41 in - SSE 17.3 mph 24.2 mph N/A   Unknown
1:30 AM 56.7 °F 54.5 °F 92% 29.41 in - South 16.1 mph 21.9 mph N/A   Unknown
1:30 AM 56.7 °F 53.8 °F 90% 29.42 in - South 17.3 mph - N/A   Unknown
2:30 AM 55 °F 52 °F 87% 29.43 in - South 15.0 mph - -  
2:30 AM 55.2 °F 52.2 °F 89% 29.43 in - South 15.0 mph - N/A   Unknown
3:30 AM 54.9 °F 50.2 °F 84% 29.43 in - South 15.0 mph - N/A   Unknown
4:30 AM 53.8 °F 48.7 °F 83% 29.43 in - South 16.1 mph - N/A   Unknown
5:30 AM 55 °F 49 °F 75% 29.43 in - South 16.1 mph - -  
5:30 AM 54.9 °F 49.3 °F 81% 29.43 in - South 16.1 mph 24.2 mph N/A   Unknown
6:30 AM 54.3 °F 50.2 °F 86% 29.42 in - SSE 16.1 mph 25.3 mph N/A   Unknown
7:30 AM 54.0 °F 49.6 °F 85% 29.43 in - South 17.3 mph 25.3 mph N/A   Unknown
8:30 AM 55 °F 51 °F 81% 29.43 in - SSE 16.1 mph - -  
8:30 AM 55.0 °F 50.7 °F 85% 29.43 in - SSE 16.1 mph 23.0 mph N/A   Unknown
9:30 AM 55.4 °F 49.8 °F 81% 29.44 in - South 23.0 mph 31.1 mph N/A   Unknown
10:30 AM 54.0 °F 50.0 °F 86% 29.45 in - SSW 27.6 mph 35.7 mph N/A   Unknown
11:30 AM 54 °F 50 °F 83% 29.46 in - SSW 23.0 mph - -  
11:30 AM 54.0 °F 50.4 °F 88% 29.46 in - SSW 23.0 mph 28.8 mph N/A   Unknown
12:30 PM 54.3 °F 50.0 °F 85% 29.47 in - SSW 21.9 mph 29.9 mph N/A   Unknown
1:30 PM 53.8 °F 50.0 °F 87% 29.49 in - SSW 19.6 mph - N/A   Unknown
2:30 PM 53 °F 49 °F 83% 29.49 in - SSW 23.0 mph - -  
2:30 PM 52.7 °F 49.3 °F 88% 29.49 in - SSW 23.0 mph 29.9 mph N/A   Unknown
3:30 PM 52.7 °F 48.2 °F 85% 29.50 in - SSW 17.3 mph 25.3 mph N/A   Unknown
4:30 PM 52.2 °F 48.0 °F 86% 29.50 in - SSW 21.9 mph - N/A   Unknown
5:30 PM 52 °F 48 °F 82% 29.52 in - SSW 21.9 mph - -  
5:30 PM 51.6 °F 48.0 °F 87% 29.52 in - SSW 21.9 mph 29.9 mph N/A   Unknown
6:30 PM 51.3 °F 48.2 °F 89% 29.53 in - SSW 21.9 mph - N/A   Unknown
7:30 PM 50.5 °F 48.4 °F 92% 29.52 in - SSW 21.9 mph - N/A   Unknown
8:30 PM 50 °F 48 °F 92% 29.53 in - SSW 21.9 mph - -  
8:30 PM 50.0 °F 48.4 °F 94% 29.53 in - SSW 21.9 mph 28.8 mph N/A   Unknown
9:30 PM 50.0 °F 48.4 °F 94% 29.54 in - SSW 20.7 mph 27.6 mph N/A   Unknown
10:30 PM 50.0 °F 48.4 °F 94% 29.55 in - SW 20.7 mph - N/A   Unknown